Flag for U.S.A. Weather past 2 weeks in Compton, California, U.S.A.

Now
69 °F

Overcast.


Feels Like: 69 °F
Forecast: 67 / 77 °F
Wind: 3 mph from East

Location: Hawthorne Municipal Airport

Current Time: Sep 21, 2014 at 6:16:30 AM

Latest Report: Sep 21, 2014 at 5:53 AM


Visibility: 10 mi

Pressure: 29.95 "Hg

Humidity: 81%

Dew point: 63 °F

Location of ComptonLocation

Historic Weather in Compton — Graph

°F

Compton temperature yesterday

Maximum temperature yesterday: 77 °F (at 2:53 PM)
Minimum temperature yesterday: 68 °F (at 2:53 AM)
Average temperature yesterday: 71 °F

Past Weeks' High & Low Weather Summary

 TemperatureHumidityPressure
High94 °F (Sep 16, 10:53 AM)87% (Sep 6, 4:53 AM)29.96 "Hg (Sep 6, 4:53 AM)
Low67 °F (Sep 6, 4:53 AM)30% (Sep 17, 3:53 PM)29.68 "Hg (Sep 13, 6:53 PM)
Average76 °F65%29.81 "Hg
* Reported Sep 6 4:53 AM — Sep 21 4:53 AM, Compton, Weather by CustomWeather, © 2014

Note: Actual official high and low records may vary slightly from our data, if they occured in-between our weather recording intervals... More about our weather records

Advertising

Compton weather history for previous 24 hours

 ConditionsComfort  
Time TempWeatherWind HumidityBarometerVisibility
4:53 AM
Sep 21
68 °FOvercast.No wind84%29.94 "Hg10 mi
3:53 AM67 °FOvercast.No wind87%29.93 "Hg10 mi
2:53 AM67 °FClear.No wind87%29.93 "Hg10 mi
1:53 AM68 °FClear.No wind87%29.94 "Hg10 mi
12:53 AM69 °FPassing clouds.5 mph84%29.94 "Hg10 mi
11:53 PM
Sep 20
69 °FClear.5 mph81%29.94 "Hg10 mi
10:53 PM70 °FClear.3 mph76%29.93 "Hg10 mi
9:53 PM70 °FClear.3 mph76%29.93 "Hg10 mi
8:53 PM70 °FClear.3 mph79%29.92 "Hg10 mi
7:53 PM71 °FClear.8 mph68%29.90 "Hg10 mi
6:53 PM72 °FSunny.9 mph64%29.89 "Hg10 mi
5:53 PM74 °FSunny.9 mph67%29.88 "Hg10 mi
4:53 PM76 °FSunny.10 mph60%29.88 "Hg10 mi
3:53 PM77 °FSunny.10 mph58%29.88 "Hg10 mi
2:53 PM77 °FPassing clouds.6 mph58%29.90 "Hg10 mi
1:53 PM74 °FOvercast.9 mph64%29.91 "Hg10 mi
12:53 PM73 °FMostly cloudy.6 mph69%29.94 "Hg10 mi
11:53 AM72 °FOvercast.6 mph73%29.95 "Hg10 mi
10:53 AM72 °FOvercast.3 mph71%29.96 "Hg10 mi
Weather by CustomWeather, © 2014

See weather overviewHow to use our weather pages